Time,TemperatureF,DewpointF,PressureIn,WindDirection,WindDirectionDegrees,WindSpeedMPH,WindSpeedGustMPH,Humidity,HourlyPrecipIn,Conditions,Clouds,dailyrainin,SoftwareType,DateUTC
2013-02-18 00:02:00,34.0,17.0,30.22,SSW,213,0.0,0.0,50,0.00,,,0.00,,2013-02-18 05:02:00,
2013-02-18 00:11:00,34.0,17.0,30.22,SSW,213,0.0,0.0,50,0.00,,,0.00,,2013-02-18 05:11:00,
2013-02-18 00:21:00,33.0,18.0,30.22,SSW,213,0.0,0.0,54,0.00,,,0.00,,2013-02-18 05:21:00,
2013-02-18 00:32:00,33.0,20.0,30.22,SSW,213,0.0,0.0,58,0.00,,,0.00,,2013-02-18 05:32:00,
2013-02-18 00:42:00,33.0,20.0,30.22,SSW,213,0.0,0.0,58,0.00,,,0.00,,2013-02-18 05:42:00,
2013-02-18 00:52:00,34.0,19.0,30.22,SW,215,0.0,4.0,53,0.00,,,0.00,,2013-02-18 05:52:00,
2013-02-18 01:02:00,33.0,18.0,30.22,SW,215,0.0,0.0,53,0.00,,,0.00,,2013-02-18 06:02:00,
2013-02-18 01:11:00,33.0,18.0,30.22,SW,215,0.0,0.0,53,0.00,,,0.00,,2013-02-18 06:11:00,
2013-02-18 01:21:00,33.0,17.0,30.22,SW,215,1.0,3.0,51,0.00,,,0.00,,2013-02-18 06:21:00,
2013-02-18 01:32:00,34.0,16.0,30.23,SSW,209,0.0,5.0,48,0.00,,,0.00,,2013-02-18 06:32:00,
2013-02-18 01:42:00,33.0,15.0,30.22,South,181,0.0,2.0,48,0.00,,,0.00,,2013-02-18 06:42:00,
2013-02-18 01:51:00,33.0,15.0,30.22,South,181,0.0,2.0,48,0.00,,,0.00,,2013-02-18 06:51:00,
2013-02-18 02:02:00,33.0,16.0,30.22,South,181,0.0,1.0,49,0.00,,,0.00,,2013-02-18 07:02:00,
2013-02-18 02:11:00,33.0,16.0,30.22,South,181,0.0,1.0,49,0.00,,,0.00,,2013-02-18 07:11:00,
2013-02-18 02:22:00,33.0,16.0,30.22,South,189,1.0,5.0,49,0.00,,,0.00,,2013-02-18 07:22:00,
2013-02-18 02:32:00,32.0,16.0,30.22,South,189,0.0,0.0,52,0.00,,,0.00,,2013-02-18 07:32:00,
2013-02-18 02:42:00,32.0,16.0,30.22,South,189,0.0,0.0,52,0.00,,,0.00,,2013-02-18 07:42:00,
2013-02-18 02:51:00,31.0,18.0,30.22,South,189,0.0,0.0,58,0.00,,,0.00,,2013-02-18 07:51:00,
2013-02-18 03:01:00,31.0,18.0,30.22,South,189,0.0,2.0,57,0.00,,,0.00,,2013-02-18 08:01:00,
2013-02-18 03:11:00,30.0,16.0,30.22,South,189,0.0,0.0,56,0.00,,,0.00,,2013-02-18 08:11:00,
2013-02-18 03:21:00,30.0,16.0,30.22,South,189,0.0,0.0,56,0.00,,,0.00,,2013-02-18 08:21:00,
2013-02-18 03:32:00,30.0,18.0,30.22,South,189,0.0,2.0,60,0.00,,,0.00,,2013-02-18 08:32:00,
2013-02-18 03:42:00,30.0,18.0,30.22,South,189,0.0,2.0,60,0.00,,,0.00,,2013-02-18 08:42:00,
2013-02-18 03:52:00,30.0,18.0,30.22,South,189,0.0,0.0,61,0.00,,,0.00,,2013-02-18 08:52:00,
2013-02-18 04:03:00,30.0,18.0,30.22,South,189,0.0,1.0,60,0.00,,,0.00,,2013-02-18 09:03:00,
2013-02-18 04:11:00,30.0,18.0,30.22,South,189,0.0,1.0,60,0.00,,,0.00,,2013-02-18 09:11:00,
2013-02-18 04:22:00,31.0,18.0,30.22,South,191,1.0,2.0,57,0.00,,,0.00,,2013-02-18 09:22:00,
2013-02-18 04:32:00,31.0,16.0,30.22,South,191,0.0,0.0,54,0.00,,,0.00,,2013-02-18 09:32:00,
2013-02-18 04:42:00,31.0,16.0,30.22,South,191,0.0,0.0,54,0.00,,,0.00,,2013-02-18 09:42:00,
2013-02-18 04:52:00,31.0,17.0,30.22,South,191,0.0,0.0,55,0.00,,,0.00,,2013-02-18 09:52:00,
2013-02-18 05:01:00,31.0,17.0,30.22,South,191,0.0,0.0,55,0.00,,,0.00,,2013-02-18 10:01:00,
2013-02-18 05:11:00,31.0,17.0,30.22,South,191,0.0,0.0,55,0.00,,,0.00,,2013-02-18 10:11:00,
2013-02-18 05:22:00,31.0,19.0,30.22,South,191,0.0,0.0,61,0.00,,,0.00,,2013-02-18 10:22:00,
2013-02-18 05:32:00,30.0,20.0,30.23,South,191,0.0,0.0,65,0.00,,,0.00,,2013-02-18 10:32:00,
2013-02-18 05:42:00,30.0,20.0,30.23,South,191,0.0,0.0,65,0.00,,,0.00,,2013-02-18 10:42:00,
2013-02-18 05:52:00,30.0,20.0,30.24,South,191,0.0,0.0,67,0.00,,,0.00,,2013-02-18 10:52:00,
2013-02-18 06:02:00,30.0,20.0,30.24,South,191,0.0,0.0,65,0.00,,,0.00,,2013-02-18 11:02:00,
2013-02-18 06:12:00,30.0,20.0,30.24,South,191,0.0,0.0,65,0.00,,,0.00,,2013-02-18 11:12:00,
2013-02-18 06:22:00,30.0,19.0,30.24,South,191,0.0,0.0,63,0.00,,,0.00,,2013-02-18 11:22:00,
2013-02-18 06:32:00,30.0,19.0,30.25,South,191,0.0,0.0,62,0.00,,,0.00,,2013-02-18 11:32:00,
2013-02-18 06:42:00,30.0,19.0,30.25,South,191,0.0,0.0,62,0.00,,,0.00,,2013-02-18 11:42:00,
2013-02-18 06:52:00,31.0,20.0,30.26,South,191,0.0,0.0,63,0.00,,,0.00,,2013-02-18 11:52:00,
2013-02-18 07:02:00,30.0,20.0,30.26,South,191,0.0,0.0,65,0.00,,,0.00,,2013-02-18 12:02:00,
2013-02-18 07:12:00,30.0,20.0,30.26,South,191,0.0,0.0,65,0.00,,,0.00,,2013-02-18 12:12:00,
2013-02-18 07:22:00,30.0,21.0,30.25,South,191,0.0,0.0,69,0.00,,,0.00,,2013-02-18 12:22:00,
2013-02-18 07:32:00,30.0,20.0,30.26,South,191,0.0,2.0,66,0.00,,,0.00,,2013-02-18 12:32:00,
2013-02-18 07:42:00,30.0,20.0,30.26,South,191,0.0,2.0,66,0.00,,,0.00,,2013-02-18 12:42:00,
2013-02-18 07:52:00,31.0,20.0,30.26,South,191,0.0,0.0,62,0.00,,,0.00,,2013-02-18 12:52:00,
2013-02-18 08:03:00,31.0,19.0,30.26,South,191,0.0,0.0,61,0.00,,,0.00,,2013-02-18 13:03:00,
2013-02-18 08:12:00,31.0,19.0,30.26,South,191,0.0,0.0,61,0.00,,,0.00,,2013-02-18 13:12:00,
2013-02-18 08:22:00,31.0,20.0,30.27,South,191,0.0,0.0,64,0.00,,,0.00,,2013-02-18 13:22:00,
2013-02-18 08:32:00,33.0,22.0,30.27,South,188,1.0,3.0,64,0.00,,,0.00,,2013-02-18 13:32:00,
2013-02-18 08:42:00,33.0,22.0,30.27,South,188,1.0,3.0,64,0.00,,,0.00,,2013-02-18 13:42:00,
2013-02-18 08:53:00,35.0,23.0,30.27,South,189,1.0,3.0,60,0.00,,,0.00,,2013-02-18 13:53:00,
2013-02-18 09:02:00,36.0,23.0,30.27,South,189,1.0,2.0,60,0.00,,,0.00,,2013-02-18 14:02:00,
2013-02-18 09:12:00,36.0,23.0,30.27,South,189,1.0,2.0,60,0.00,,,0.00,,2013-02-18 14:12:00,
2013-02-18 09:22:00,36.0,23.0,30.27,South,189,0.0,1.0,60,0.00,,,0.00,,2013-02-18 14:22:00,
2013-02-18 09:33:00,37.0,23.0,30.28,SSE,168,1.0,4.0,56,0.00,,,0.00,,2013-02-18 14:33:00,
2013-02-18 09:42:00,37.0,23.0,30.28,SSE,168,1.0,4.0,56,0.00,,,0.00,,2013-02-18 14:42:00,
2013-02-18 09:53:00,39.0,22.0,30.28,South,169,2.0,5.0,51,0.00,,,0.00,,2013-02-18 14:53:00,
2013-02-18 10:02:00,40.0,21.0,30.28,SSE,148,2.0,5.0,47,0.00,,,0.00,,2013-02-18 15:02:00,
2013-02-18 10:12:00,40.0,21.0,30.28,SSE,148,2.0,5.0,47,0.00,,,0.00,,2013-02-18 15:12:00,
2013-02-18 10:22:00,41.0,20.0,30.28,SSE,155,1.0,7.0,43,0.00,,,0.00,,2013-02-18 15:22:00,
2013-02-18 10:32:00,42.0,19.0,30.31,South,184,1.0,7.0,39,0.00,,,0.00,,2013-02-18 15:32:00,
2013-02-18 10:42:00,42.0,19.0,30.31,South,184,1.0,7.0,39,0.00,,,0.00,,2013-02-18 15:42:00,
2013-02-18 10:52:00,43.0,19.0,30.28,SSE,147,5.0,11.0,37,0.00,,,0.00,,2013-02-18 15:52:00,
2013-02-18 11:03:00,44.0,20.0,30.30,South,188,1.0,8.0,38,0.00,,,0.00,,2013-02-18 16:03:00,
2013-02-18 11:12:00,44.0,20.0,30.30,South,188,1.0,8.0,38,0.00,,,0.00,,2013-02-18 16:12:00,
2013-02-18 11:22:00,45.0,21.0,30.30,SSE,162,1.0,8.0,38,0.00,,,0.00,,2013-02-18 16:22:00,
2013-02-18 11:32:00,46.0,21.0,30.29,SSE,154,5.0,11.0,36,0.00,,,0.00,,2013-02-18 16:32:00,
2013-02-18 11:43:00,46.0,21.0,30.29,SSE,154,5.0,11.0,36,0.00,,,0.00,,2013-02-18 16:43:00,
2013-02-18 11:52:00,48.0,21.0,30.29,South,174,4.0,10.0,34,0.00,,,0.00,,2013-02-18 16:52:00,
2013-02-18 12:04:00,50.0,21.0,30.28,South,178,5.0,11.0,32,0.00,,,0.00,,2013-02-18 17:04:00,
2013-02-18 12:12:00,50.0,21.0,30.28,South,178,5.0,11.0,32,0.00,,,0.00,,2013-02-18 17:12:00,
2013-02-18 12:22:00,50.0,21.0,30.27,SSW,210,6.0,8.0,31,0.00,,,0.00,,2013-02-18 17:22:00,
2013-02-18 12:33:00,50.0,20.0,30.26,SE,145,4.0,11.0,30,0.00,,,0.00,,2013-02-18 17:33:00,
2013-02-18 12:42:00,50.0,20.0,30.26,SE,145,4.0,11.0,30,0.00,,,0.00,,2013-02-18 17:42:00,
2013-02-18 12:52:00,52.0,22.0,30.25,SE,128,2.0,11.0,31,0.00,,,0.00,,2013-02-18 17:52:00,
2013-02-18 13:02:00,53.0,22.0,30.24,South,178,3.0,10.0,30,0.00,,,0.00,,2013-02-18 18:02:00,
2013-02-18 13:12:00,53.0,22.0,30.24,South,178,3.0,10.0,30,0.00,,,0.00,,2013-02-18 18:12:00,
2013-02-18 13:23:00,54.0,23.0,30.22,SE,124,4.0,12.0,30,0.00,,,0.00,,2013-02-18 18:23:00,
2013-02-18 13:33:00,56.0,24.0,30.21,South,186,4.0,14.0,29,0.00,,,0.00,,2013-02-18 18:33:00,
2013-02-18 13:43:00,56.0,24.0,30.21,South,186,4.0,14.0,29,0.00,,,0.00,,2013-02-18 18:43:00,
2013-02-18 13:52:00,55.0,26.0,30.20,ESE,121,4.0,12.0,32,0.00,,,0.00,,2013-02-18 18:52:00,
2013-02-18 14:03:00,55.0,26.0,30.19,SSE,157,6.0,14.0,32,0.00,,,0.00,,2013-02-18 19:03:00,
2013-02-18 14:13:00,55.0,26.0,30.19,SSE,157,6.0,14.0,32,0.00,,,0.00,,2013-02-18 19:13:00,
2013-02-18 14:22:00,55.0,24.0,30.18,SSE,151,5.0,14.0,30,0.00,,,0.00,,2013-02-18 19:22:00,
2013-02-18 14:33:00,55.0,26.0,30.17,ESE,114,6.0,17.0,33,0.00,,,0.00,,2013-02-18 19:33:00,
2013-02-18 14:43:00,55.0,26.0,30.17,ESE,114,6.0,17.0,33,0.00,,,0.00,,2013-02-18 19:43:00,
2013-02-18 14:52:00,57.0,27.0,30.16,South,174,5.0,13.0,31,0.00,,,0.00,,2013-02-18 19:52:00,
2013-02-18 15:02:00,58.0,27.0,30.15,East,90,6.0,17.0,30,0.00,,,0.00,,2013-02-18 20:02:00,
2013-02-18 15:13:00,58.0,27.0,30.15,East,90,6.0,17.0,30,0.00,,,0.00,,2013-02-18 20:13:00,
2013-02-18 15:23:00,57.0,27.0,30.14,SE,128,6.0,17.0,31,0.00,,,0.00,,2013-02-18 20:23:00,
2013-02-18 15:33:00,58.0,26.0,30.13,SSW,208,7.0,20.0,29,0.00,,,0.00,,2013-02-18 20:33:00,
2013-02-18 15:42:00,58.0,26.0,30.13,SSW,208,7.0,20.0,29,0.00,,,0.00,,2013-02-18 20:42:00,
2013-02-18 15:52:00,58.0,27.0,30.13,South,179,6.0,20.0,30,0.00,,,0.00,,2013-02-18 20:52:00,
2013-02-18 16:03:00,58.0,26.0,30.12,SE,134,6.0,13.0,29,0.00,,,0.00,,2013-02-18 21:03:00,
2013-02-18 16:12:00,58.0,26.0,30.12,SE,134,6.0,13.0,29,0.00,,,0.00,,2013-02-18 21:12:00,
2013-02-18 16:22:00,58.0,25.0,30.11,WSW,256,5.0,12.0,28,0.00,,,0.00,,2013-02-18 21:22:00,
2013-02-18 16:33:00,58.0,27.0,30.10,SE,130,3.0,20.0,30,0.00,,,0.00,,2013-02-18 21:33:00,
2013-02-18 16:43:00,58.0,27.0,30.10,SE,130,3.0,20.0,30,0.00,,,0.00,,2013-02-18 21:43:00,
2013-02-18 16:52:00,58.0,27.0,30.10,South,175,8.0,16.0,30,0.00,,,0.00,,2013-02-18 21:52:00,
2013-02-18 17:03:00,58.0,26.0,30.09,SSE,147,7.0,17.0,29,0.00,,,0.00,,2013-02-18 22:03:00,
2013-02-18 17:13:00,58.0,27.0,30.09,SSW,196,6.0,18.0,30,0.00,,,0.00,,2013-02-18 22:13:00,
2013-02-18 17:22:00,58.0,27.0,30.09,SSW,196,6.0,18.0,30,0.00,,,0.00,,2013-02-18 22:22:00,
2013-02-18 17:33:00,57.0,24.0,30.08,SSE,150,4.0,18.0,28,0.00,,,0.00,,2013-02-18 22:33:00,
2013-02-18 17:43:00,57.0,24.0,30.08,SSE,150,4.0,18.0,28,0.00,,,0.00,,2013-02-18 22:43:00,
2013-02-18 17:52:00,56.0,25.0,30.08,SSE,168,7.0,14.0,30,0.00,,,0.00,,2013-02-18 22:52:00,
2013-02-18 18:03:00,56.0,27.0,30.07,South,185,7.0,22.0,32,0.00,,,0.00,,2013-02-18 23:03:00,
2013-02-18 18:12:00,56.0,27.0,30.07,South,185,7.0,22.0,32,0.00,,,0.00,,2013-02-18 23:12:00,
2013-02-18 18:23:00,56.0,25.0,30.07,SE,134,5.0,16.0,30,0.00,,,0.00,,2013-02-18 23:23:00,
2013-02-18 18:33:00,55.0,25.0,30.06,SE,128,6.0,12.0,31,0.00,,,0.00,,2013-02-18 23:33:00,
2013-02-18 18:43:00,55.0,25.0,30.06,SE,128,6.0,12.0,31,0.00,,,0.00,,2013-02-18 23:43:00,
2013-02-18 18:52:00,55.0,25.0,30.07,SSE,152,4.0,14.0,31,0.00,,,0.00,,2013-02-18 23:52:00,
2013-02-18 19:03:00,55.0,25.0,30.07,SSE,150,7.0,12.0,31,0.00,,,0.00,,2013-02-19 00:03:00,
2013-02-18 19:12:00,55.0,25.0,30.07,SSE,150,7.0,12.0,31,0.00,,,0.00,,2013-02-19 00:12:00,
2013-02-18 19:22:00,54.0,25.0,30.06,SE,144,5.0,14.0,32,0.00,,,0.00,,2013-02-19 00:22:00,
2013-02-18 19:35:00,54.0,24.0,30.07,SSE,158,4.0,18.0,31,0.00,,,0.00,,2013-02-19 00:35:00,
2013-02-18 19:43:00,54.0,24.0,30.07,SSE,158,4.0,18.0,31,0.00,,,0.00,,2013-02-19 00:43:00,
2013-02-18 19:53:00,54.0,24.0,30.07,SSE,162,4.0,11.0,31,0.00,,,0.00,,2013-02-19 00:53:00,
2013-02-18 20:03:00,54.0,24.0,30.07,SSE,155,5.0,14.0,31,0.00,,,0.00,,2013-02-19 01:03:00,
2013-02-18 20:14:00,54.0,24.0,30.07,SSE,155,5.0,14.0,31,0.00,,,0.00,,2013-02-19 01:14:00,
2013-02-18 20:24:00,54.0,25.0,30.07,SSE,160,5.0,16.0,32,0.00,,,0.00,,2013-02-19 01:24:00,
2013-02-18 20:35:00,54.0,26.0,30.05,SE,145,4.0,17.0,34,0.00,,,0.00,,2013-02-19 01:35:00,
2013-02-18 20:44:00,54.0,26.0,30.05,SE,145,4.0,17.0,34,0.00,,,0.00,,2013-02-19 01:44:00,
2013-02-18 20:54:00,53.0,25.0,30.05,SE,124,4.0,21.0,33,0.00,,,0.00,,2013-02-19 01:54:00,
2013-02-18 21:14:00,53.0,25.0,30.04,SE,136,8.0,17.0,33,0.00,,,0.00,,2013-02-19 02:14:00,
2013-02-18 21:23:00,53.0,25.0,30.04,SSE,148,9.0,19.0,33,0.00,,,0.00,,2013-02-19 02:23:00,
2013-02-18 21:35:00,53.0,25.0,30.04,SE,141,11.0,20.0,33,0.00,,,0.00,,2013-02-19 02:35:00,
2013-02-18 21:43:00,53.0,25.0,30.04,SE,141,11.0,20.0,33,0.00,,,0.00,,2013-02-19 02:43:00,
2013-02-18 21:53:00,52.0,23.0,30.03,SE,124,9.0,21.0,32,0.00,,,0.00,,2013-02-19 02:53:00,
2013-02-18 22:06:00,52.0,25.0,30.03,SE,140,5.0,12.0,34,0.00,,,0.00,,2013-02-19 03:06:00,
2013-02-18 22:15:00,51.0,24.0,30.03,SSE,165,9.0,20.0,35,0.00,,,0.00,,2013-02-19 03:15:00,
2013-02-18 22:24:00,51.0,24.0,30.03,SSE,165,9.0,20.0,35,0.00,,,0.00,,2013-02-19 03:24:00,
2013-02-18 22:34:00,51.0,24.0,30.03,SE,145,5.0,17.0,34,0.00,,,0.00,,2013-02-19 03:34:00,
2013-02-18 22:45:00,51.0,24.0,30.03,SE,145,5.0,17.0,34,0.00,,,0.00,,2013-02-19 03:45:00,
2013-02-18 22:53:00,51.0,25.0,30.03,SE,140,8.0,19.0,36,0.00,,,0.00,,2013-02-19 03:53:00,
2013-02-18 23:03:00,50.0,23.0,30.02,SSE,147,8.0,19.0,35,0.00,,,0.00,,2013-02-19 04:03:00,
2013-02-18 23:14:00,50.0,23.0,30.02,SSE,147,8.0,19.0,35,0.00,,,0.00,,2013-02-19 04:14:00,
2013-02-18 23:23:00,50.0,25.0,30.01,SSE,152,9.0,25.0,37,0.00,,,0.00,,2013-02-19 04:23:00,
2013-02-18 23:34:00,50.0,25.0,30.01,SE,133,8.0,24.0,37,0.00,,,0.00,,2013-02-19 04:34:00,
2013-02-18 23:44:00,50.0,25.0,30.01,SE,133,8.0,24.0,37,0.00,,,0.00,,2013-02-19 04:44:00,
2013-02-18 23:53:00,50.0,25.0,30.00,SE,141,5.0,19.0,37,0.00,,,0.00,,2013-02-19 04:53:00,